User: anonymous   Login
Location: Antin
(43.3330°N, 0.2804°E)
Time: 03:18:34
(UTC+00:00)
Language:

Cosmos 2082 - Orbit

View from above orbital plane
View from above orbital plane
View from above satellite
View from above satellite

Ground track
Ground track

The orbit data is extracted from the following two-line orbital elements,

1 20624U 90046A   22020.77811932 -.00000194  00000-0 -76574-4 0  9996
2 20624  71.0418 300.7841 0015865 337.4660  22.5764 14.14375549634523
Epoch (UTC): 20 January 2022 18:40:29
Eccentricity: 0.0015865
inclination: 71.0418°
perigee height: 833 km
apogee height: 856 km
right ascension of ascending node: 300.7841°
argument of perigee: 337.4660°
revolutions per day: 14.14375549
mean anomaly at epoch: 22.5764°
orbit number at epoch: 63452

The dashed part of the orbit path shows where the satellite is in the earth's shadow,  

DLR